Home   Weather   Little Rock   Past weeks

Flag for USA Past Weather in Little Rock, Arkansas, USA — Yesterday and Last 2 Weeks

Now
65 °F

Clear.


Feels Like: 65 °F
Forecast: 57 / 72 °F
Wind: 8 mph from Southeast

Location: Adams Field

Current Time: Feb 19, 2017 at 7:44:53 pm

Latest Report: Feb 19, 2017 at 6:53 pm


Visibility: 10 mi

Pressure: 30.01 "Hg

Humidity: 70%

Dew Point: 55 °F

Location of Little RockLocation

Past Weather in Little Rock — Graph

°F

Little Rock Temperature Yesterday

Maximum temperature yesterday: 65 °F (at 1:53 pm)
Minimum temperature yesterday: 49 °F (at 11:06 pm)
Average temperature yesterday: 57 °F

High & Low Weather Summary for the Past Weeks

 TemperatureHumidityPressure
High79 °F (Feb 7, 1:53 pm)100% (Feb 5, 2:53 am)30.50 "Hg (Feb 5, 2:53 am)
Low29 °F (Feb 9, 6:53 am)24% (Feb 16, 2:53 pm)29.62 "Hg (Feb 7, 2:53 pm)
Average54 °F74%30.01 "Hg
* Reported Feb 4 5:53 pm — Feb 19 5:53 pm, Little Rock, Weather by CustomWeather, © 2017

Note: Actual official high and low records may vary slightly from our data, if they occured in-between our weather recording intervals... More about our weather records

Advertising

Little Rock Weather History for the Previous 24 Hours

Scroll right to see more
 ConditionsComfort  
Time TempWeatherWind HumidityBarometerVisibility
5:53 pm
Sun, Feb 19
70 °FScattered clouds.9 mph61%30.00 "Hg10 mi
4:53 pm74 °FScattered clouds.14 mph56%29.99 "Hg10 mi
3:53 pm76 °FScattered clouds.8 mph54%30.00 "Hg10 mi
2:53 pm75 °FScattered clouds.13 mph58%30.00 "Hg10 mi
1:53 pm74 °FScattered clouds.10 mph62%30.02 "Hg10 mi
12:53 pm72 °FScattered clouds.10 mph64%30.03 "Hg10 mi
11:53 am70 °FScattered clouds.10 mph68%30.06 "Hg10 mi
10:53 am63 °FBroken clouds.5 mph81%30.09 "Hg10 mi
9:53 am55 °FFog.No wind100%30.10 "Hg5 mi
9:09 am53 °FFog.No wind100%30.08 "Hg3 mi
8:53 am52 °FFog.No wind100%30.08 "Hg2 mi
8:37 am52 °FFog.3 mph100%30.06 "Hg1 mi
8:14 am51 °FFog.No wind100%30.06 "Hg1 mi
8:05 am50 °FFog.No wind100%30.06 "Hg0 mi
7:53 am50 °FFog.No wind100%30.05 "Hg0 mi
7:20 am50 °FFog.No wind100%30.04 "Hg0 mi
6:53 am48 °FFog.No wind100%30.04 "Hg0 mi
6:42 am48 °FFog.3 mph100%30.03 "Hg0 mi
6:37 am48 °FFog.3 mph100%30.03 "Hg1 mi
5:53 am50 °FFog.No wind100%30.05 "Hg2 mi
5:33 am50 °FFog.No wind100%30.04 "Hg1 mi
4:53 am49 °FFog.No wind100%30.03 "Hg0 mi
3:53 am47 °FFog.No wind100%30.01 "Hg0 mi
2:53 am48 °FFog.No wind100%29.98 "Hg0 mi
2:10 am46 °FFog.No wind100%29.97 "Hg0 mi
2:05 am46 °FFog.No wind100%29.97 "Hg0 mi
1:42 am45 °FFog.No wind100%29.96 "Hg1 mi
1:18 am48 °FFog.No wind100%29.96 "Hg5 mi
12:53 am50 °FClear.No wind100%29.97 "Hg7 mi
11:53 pm
Sat, Feb 18
51 °FClear.No wind100%29.97 "Hg7 mi
11:06 pm49 °FFog.No wind100%29.95 "Hg6 mi
10:53 pm53 °FFog.No wind100%29.95 "Hg6 mi
9:53 pm50 °FClear.No wind100%29.94 "Hg10 mi
8:53 pm53 °FPassing clouds.5 mph96%29.93 "Hg10 mi
7:53 pm54 °FClear.No wind97%29.93 "Hg10 mi
Weather by CustomWeather, © 2017

See weather overviewHow to use our weather pages